Home > Time Zones > World Clock > Weather > Chile > Talca > Past weeks

Flag for Chile Weather past 2 weeks in Talca, Chile

Now
54 °F

Sprinkles. Mostly cloudy.


Feels Like: 54 °F
Forecast: 48 / 66 °F
Wind: No wind

Location: Concepcion Airport

Current Time: Sep 21, 2014 at 8:00:08 AM

Latest Report: Sep 21, 2014 at 7:00 AM


Visibility: 5 mi

Pressure: 30.04 "Hg

Humidity: 94%

Dew point: 52 °F

Location of TalcaLocation

Historic Weather in Talca — Graph

°F

Talca temperature yesterday

Maximum temperature yesterday: 63 °F (at 5:00 PM)
Minimum temperature yesterday: 54 °F (at 12:00 AM)
Average temperature yesterday: 56 °F

Past Weeks' High & Low Weather Summary

 TemperatureHumidityPressure
High66 °F (Sep 15, 5:00 PM)100% (Sep 7, 10:00 AM)30.36 "Hg (Sep 7, 10:00 AM)
Low37 °F (Sep 9, 7:00 AM)48% (Sep 11, 1:00 PM)29.92 "Hg (Sep 8, 5:00 AM)
Average52 °F83%30.10 "Hg
* Reported Sep 6 5:00 AM — Sep 21 6:00 AM, Talca, Weather by CustomWeather, © 2014

Note: Actual official high and low records may vary slightly from our data, if they occured in-between our weather recording intervals... More about our weather records

Advertising

Talca weather history for previous 24 hours

 ConditionsComfort  
Time TempWeatherWind HumidityBarometerVisibility
6:00 AM
Sep 21
54 °FMostly cloudy.3 mph94%30.01 "HgN/A
5:00 AM55 °FDrizzle. Mostly cloudy.8 mph94%30.01 "Hg5 mi
4:00 AM55 °FOvercast.6 mph94%30.01 "HgN/A
3:00 AM54 °FPassing clouds.5 mph100%30.04 "HgN/A
2:00 AM55 °FPassing clouds.3 mph88%30.04 "HgN/A
1:00 AM55 °FPassing clouds.5 mph94%30.04 "HgN/A
12:00 AM55 °FPassing clouds.2 mph94%30.07 "HgN/A
11:00 PM
Sep 20
55 °FLow clouds.5 mph94%30.07 "HgN/A
10:00 PM55 °FLow clouds.3 mph94%30.07 "HgN/A
9:00 PM55 °FOvercast.No wind94%30.07 "HgN/A
8:00 PM55 °FPassing clouds.3 mph94%30.07 "HgN/A
7:00 PM55 °FPassing clouds.7 mph94%30.07 "HgN/A
6:00 PM57 °FPartly sunny.8 mph88%30.07 "HgN/A
5:00 PM63 °FBroken clouds.3 mph68%30.07 "HgN/A
4:00 PM59 °FPassing clouds.5 mph82%30.09 "HgN/A
3:00 PM57 °FBroken clouds.6 mph88%30.12 "HgN/A
10:00 AM55 °FLow clouds.2 mph88%30.18 "HgN/A
9:00 AM55 °FLow clouds.2 mph88%30.18 "HgN/A
8:00 AM54 °FFog.3 mph94%30.18 "Hg4 mi
Weather by CustomWeather, © 2014

See weather overviewHow to use our weather pages